Regional Weather Roundup
Issued by NWS

Home | Current Version | Previous Version | Graphics & Text | Print | Product List | Glossary Off
Versions: 1 2 3 4 5 6 7 8 9 10 11 12 13 14 15 16 17 18 19 20 21 22 23 24 25 26 27 28 29 30 31 32 33 34 35 36 37 38 39 40 41 42 43 44 45 46 47 48 49 50

000
ASUS43 KMKX 022311
RWRWI

WISCONSIN REGIONAL WEATHER ROUNDUP
NATIONAL WEATHER SERVICE MILWAUKEE/SULLIVAN WI
600 PM CDT SUN AUG 02 2015

NOTE: "FAIR" INDICATES FEW OR NO CLOUDS BELOW 12,000 FEET WITH NO
SIGNIFICANT WEATHER AND/OR OBSTRUCTIONS TO VISIBILITY.

WIZ001-002-006>008-014>016-023>028-030000-
NORTHWEST WISCONSIN

CITY           SKY/WX    TMP DP  RH WIND       PRES   REMARKS
SUPERIOR ARPT  MOSUNNY   76  53  44 NW20G28   29.69R
ASHLAND        MOSUNNY   73  58  59 NW12G20   29.67S
HAYWARD        MOSUNNY   75  55  49 N9G21     29.70R
SIREN          SUNNY     77  51  39 NW17G25   29.71R
CUMBERLAND     PTSUNNY   75  54  46 NW17G24   29.70S
RICE LAKE      MOSUNNY   77  56  48 NW10G17   29.71S
CHETEK         MOSUNNY   78  60  53 MISG      29.69S HX  80
LADYSMITH      SUNNY     77  56  48 NW14G21   29.70R
EAU CLAIRE     MOSUNNY   80  60  50 NW14      29.68R HX  81
MENOMONIE      MOSUNNY   81  59  47 NW10      29.69S HX  81
NEW RICHMOND   MOSUNNY   76  57  52 NW10      29.72S
OSCEOLA        PTSUNNY   77  59  53 NW9       29.74S
$$

WIZ003>005-009-010-017-018-030000-
NORTH CENTRAL WISCONSIN

CITY           SKY/WX    TMP DP  RH WIND       PRES   REMARKS
MANITOWISH WTR MOSUNNY   71  55  58 NW10G17   29.66S
ARBOR VITAE    SUNNY     73  56  55 NW12G18   29.66S
WOODRUFF       SUNNY     73  56  55 NW12G18   29.66S
RHINELANDER    MOSUNNY   73  55  53 NW10G20   29.66R
EAGLE RIVER    SUNNY     73  51  46 N14G21    29.65R
LAND O LAKES   SUNNY     72  52  49 NW17G23   29.66R
PHILLIPS       SUNNY     75  58  56 NW7       29.66R
TOMAHAWK       MOSUNNY   74  62  66 NW7       29.66S
MEDFORD        MOSUNNY   75  62  63 NW10G21   29.67R
MERRILL        NOT AVBL
$$

WIZ029-030-035-036-043>047-030000-
CENTRAL WISCONSIN

CITY           SKY/WX    TMP DP  RH WIND       PRES   REMARKS
WAUSAU         MOSUNNY   78  62  57 NW10      29.62R HX  80
MOSINEE        SUNNY     75  64  69 NW13      29.65R
MARSHFIELD     SUNNY     79  58  48 NW16      29.66R HX  80
STEVENS POINT  SUNNY     76  60  57 NW10G17   29.64R
WAUPACA        CLOUDY    76  66  69 NW8       29.61R
WAUTOMA        PTSUNNY   84  66  54 NW20G26   29.60R HX  86
WISC RAPIDS    MOSUNNY   80  64  58 N14G26    29.65R HX  82
CAMP DOUGLAS   NOT AVBL
$$

WIZ011>013-019>022-031-037>040-048>050-030000-
NORTHEAST WISCONSIN

CITY           SKY/WX    TMP DP  RH WIND       PRES   REMARKS
ANTIGO         PTSUNNY   74  62  65 NW12      29.64S
SHAWANO        CLOUDY    72  64  76 E3        29.61S
OCONTO         CLOUDY    63  63 100 N5        29.59S
STURGEON BAY   CLOUDY    63  57  82 CALM      29.60F
GREEN BAY      LGT RAIN  66  62  87 N5        29.60S
MANITOWOC      TSTM      65  63  93 MISG      29.60R
APPLETON       PTSUNNY   72  59  64 NE17      29.62R
CLINTONVILLE   CLOUDY    70  63  78 CALM      29.61R
OSHKOSH        CLOUDY    72  65  78 N9        29.59R
$$

WIZ032>034-041-042-053>061-030000-
SOUTHWEST WISCONSIN

CITY           SKY/WX    TMP DP  RH WIND       PRES   REMARKS
LA CROSSE      MOSUNNY   87  65  47 NW18G26   29.65R HX  89
SPARTA         MOSUNNY   85  60  42 NW18G25   29.67R HX  85
VIROQUA        SUNNY     83  61  46 NW16G25   29.68S HX  84
BOSCOBEL       SUNNY     92  61  35 W16G23    29.65R HX  92
PRAIRIE DU CHI SUNNY     91  55  29 W15G22    29.66S HX  89
PLATTEVILLE    MOSUNNY   88  72  60 W17G29    29.68S HX  94
$$

WIZ056-057-062-063-064-067-068-030000-
SOUTH CENTRAL WISCONSIN

CITY           SKY/WX    TMP DP  RH WIND       PRES   REMARKS
REEDSBURG      SUNNY     89  61  39 W18G28    29.62R HX  89
BARABOO/DELLS  MOSUNNY   90  56  31 W20G33    29.61R HX  88
LONE ROCK      SUNNY     91  61  36 W21G29    29.63R HX  91
MINERAL POINT  MOSUNNY   88  66  48 W16G25    29.67S HX  90
MADISON        MOSUNNY   89  69  51 W13G23    29.59F HX  93
MIDDLETON      MOSUNNY   91  65  42 W17G26    29.62S HX  93
WATERTOWN      MOSUNNY   87  72  59 SW16G32   29.58S HX  93
MONROE         PTSUNNY   88  70  55 SW24G38   29.66F HX  92
JANESVILLE     MOSUNNY   90  70  51 SW23G32   29.63S HX  95
$$

WIZ051-052-058>065-066-070>072-030000-
SOUTHEAST WISCONSIN

CITY           SKY/WX    TMP DP  RH WIND       PRES   REMARKS
MILWAUKEE      PTSUNNY   90  67  46 SW28G35   29.59R HX  93
WAUKESHA       MOSUNNY   88  68  51 SW21G32   29.60F HX  91
MILWAUKEE/TIMM SUNNY     88  64  45 SW25G37   29.58S HX  89
RACINE         SUNNY     89  68  49 SW28G41   29.59F HX  93
BURLINGTON     SUNNY     87  68  52 SW18G28   29.61F HX  90
KENOSHA        SUNNY     89  69  51 SW25G38   29.61F HX  93
FOND DU LAC    TSTM      69  64  84 CALM      29.59F
SHEBOYGAN      TSTM      66  62  87 VRB5      29.60R FOG
WEST BEND      CLOUDY    86  64  48 W12G26    29.57S HX  87
JUNEAU         PTSUNNY   87  69  54 SW23G35   29.58R HX  91
$$

LSZ147-162-030000-
LAKE SUPERIOR

STATION/POSITION TIME  TEMP    WIND        PRES    WAVE
                       AIR SEA DIR/SP/G            HT/PER
                 (UTC) (F)     (DEG/KT/KT) (MB)    (FT/S)
W MID LAKE BUOY  2250   60 56  260/ 12/ 12 1002.6R   1/ 3
DEVILS ISLAND    2300   64     270/  9/ 11 1003.8R
PORT WING        2200   67     270/  5/  8 1005.1R
SAXON HARBOR     2200   74                 1003.4F
$$

LMZ867-665-643>646-030000-
LAKE MICHIGAN

STATION/POSITION TIME  TEMP    WIND        PRES    WAVE
                       AIR SEA DIR/SP/G            HT/PER
                 (UTC) (F)     (DEG/KT/KT) (MB)    (FT/S)
CHAMBERS ISLAND  2200   65     140/  2/  5 1002.0R
S GREEN BAY BUOY 2300   64 70  300/  8/ 10 1003.5S
N MID LAKE BUOY  2250   68 68  190/  4/  6 1001.2R   1/ 5
NORTHPORT PIER   2200   67     160/  5/ 14 1001.4S
ALGOMA LAKESHORE 2212          210/  8/  9   N/A
KEWAUNEE LAKESHO 2200   60      20/  2/  5 1001.6R
SHEBOYGAN LAKESH 2300          110/  9/ 11 1002.4R
PORT WASHINGTON  2200   91     240/ 13     1000.7
ATWATER BUOY     2300   81 48  220/ 23/ 33 1002.6S
MILWAUKEE LAKESH 2200   89     240/ 26/ 33   N/A
KENOSHA   LAKESH 2300   89     240/ 25/ 32 1002.0F
$$

TC  - TEMPERATURE IN CELSIUS
VSB - VISIBILITY IN STATUTE MILES
WCI - WIND CHILL INDEX
HX  - HEAT INDEX




USA.gov is the U.S. government's official web portal to all federal, state and local government web resources and services.